SCP
-0 -0 0 0 0 -0 0 -0 -0 0 0 0 0 0 -0 0 0 -0 -0 -0 -0 -0 -0 -0 0 -0 -0 0 0 0 0 -0 -0 -0 -0 -0 -0 -0 -0 -0 -0 -0 -0 -0 0 -0 -0 0 0
0 0 0 0 0 0 0 -0 -0 -0 -0 0 0 0 0 0 -0 -0 0 -0 0 -0 -0 -0 0 0 -0 0 0 0 0 -0 -0 -0 -0 -0 -0 -0 -0 0 0 0 0 0 0 0 0 0 0
0 0 0 0 0 0 0 -0 -0 -0 0 0 0 -0 -0 0 0 0 0 0 0 -0 0 -0 -0 -0 -0 0 0 0 0 -0 -0 -0 -0 -0 -0 -0 0 0 -0 -0 -0 -0 -0 -0 0 0 0
0 0 0 0 0 0 -0 -0 -0 -0 -0 0 0 -0 0 -0 0 -0 -0 0 0 -0 -0 -0 -0 -0 -0 -0 -0 -0 0 -0 -0 -0 -0 -0 -0 -0 -0 0 0 0 0 0 0 -0 0 0 0
0 0 0 0 0 0 0 0 0 0 0 0 -0 -0 0 0 -0 -0 -0 -0 -0 -0 -0 -0 -0 -0 -0 -0 -0 -0 -0 -0 -0 -0 -0 -0 0 0 0 0 0 0 0 0 0 0 0 0 0
0 0 0 0 0 0 0 0 0 -0 -0 0 0 -0 -0 -0 -0 -0 -0 -0 -0 -0 -0 -0 -0 -0 -0 -0 -0 -0 -0 -0 -0 -0 0 -0 -0 0 0 0 0 0 0 0 0 0 0 0 0
0 0 0 0 0 0 0 0 0 0 0 0 0 0 0 -0 -0 -0 -0 -0 -0 -0 -0 -0 -0 -0 -0 -0 -0 -0 -0 -0 -0 -0 0 0 -0 0 0 0 0 0 0 0 0 0 0 0 0
0 0 0 0 0 0 0 0 0 0 0 0 0 0 0 0 -0 -0 -0 -0 -0 -0 -0 -0 -0 -0 -0 -0 -0 -0 -0 -0 -0 -0 0 0 0 0 0 0 0 0 0 0 0 0 0 0 0
0 0 0 0 0 0 0 0 0 0 0 0 0 0 0 0 0 0 0 -0 -0 -0 -0 -0 -0 -0 -0 -0 -0 -0 0 0 0 0 0 0 0 0 0 0 0 0 0 0 0 0 0 0 0
0 0 0 0 0 0 0 0 0 0 0 0 0 0 0 0 0 0 0 0 -0 -0 -0 -0 -0 -0 -0 0 -0 0 0 0 0 0 0 0 0 0 0 0 0 0 0 0 0 0 0 0 0
0 0 0 0 0 0 0 0 0 0 0 0 0 0 0 0 0 0 0 0 0 -0 -0 -0 -0 0 0 0 0 0 0 0 0 0 0 0 0 0 0 0 0 0 0 0 0 0 0 0 0
0 0 0 0 0 0 0 0 0 0 0 0 0 0 0 0 0 0 0 0 0 0 0 0 0 0 0 0 0 0 0 0 0 0 0 0 0 0 0 0 0 0 0 0 0 0 0 0 0
0 0 0 0 0 0 0 0 0 0 0 0 0 0 0 0 0 0 0 0 0 0 0 0 0 0 0 0 0 0 0 0 0 0 0 0 0 0 0 0 0 0 0 0 0 0 0 0 0
0 0 0 0 0 0 0 0 0 0 0 0 0 0 0 0 0 0 0 0 0 0 0 0 0 0 0 0 0 0 0 0 0 0 0 0 0 0 0 0 0 0 0 0 0 0 0 0 0
0 0 0 0 0 0 0 0 0 0 0 0 0 0 0 0 0 0 0 0 0 0 0 0 0 0 0 0 0 0 0 0 0 0 0 0 0 0 0 0 0 0 0 0 0 0 0 0 0
0 0 0 0 0 0 0 -0 0 0 0 0 0 0 0 0 0 0 0 0 0 0 0 0 0 0 0 0 0 0 0 0 0 0 0 0 0 0 0 0 0 0 0 0 0 0 0 0 0
0 0 0 0 0 0 0 0 0 0 0 0 0 0 0 0 0 0 0 0 0 0 0 0 0 0 0 0 0 0 0 0 0 0 0 0 0 0 0 0 0 0 0 0 0 0 0 0 0
0 0 0 0 0 0 0 0 -0 0 0 0 0 0 0 0 0 0 0 0 0 0 0 0 0 0 0 0 0 0 0 0 0 0 0 0 0 0 0 0 0 0 0 0 0 0 0 0 0
0 0 0 0 0 0 0 0 0 0 0 0 0 0 0 0 0 0 0 0 0 0 0 0 0 0 0 0 0 0 0 0 0 0 0 0 0 0 0 0 0 0 0 0 0 0 0 0 0
0 0 0 0 0 0 0 0 0 0 0 0 0 0 0 0 0 0 0 0 0 0 0 0 0 0 0 0 0 0 0 0 0 0 0 0 0 0 0 0 0 0 0 0 0 0 0 0 0
0 0 0 0 0 0 0 -0 0 0 0 0 0 0 0 0 0 0 0 0 0 0 0 0 0 0 0 0 0 0 0 0 0 0 0 0 0 0 0 0 0 0 0 0 0 0 0 0 0
0 0 0 0 0 0 0 -0 0 0 0 0 0 0 0 0 0 0 0 0 0 0 0 0 0 0 0 0 0 0 0 0 0 0 0 0 0 0 0 0 0 0 0 0 0 0 0 0 0
0 0 0 0 0 0 0 0 -0 0 0 0 0 0 0 0 0 0 0 0 0 0 0 0 0 0 0 0 0 0 0 0 0 0 0 0 0 0 0 0 0 0 0 0 0 0 0 0 0
0 0 0 0 0 0 0 0 -0 0 0 0 0 0 0 0 0 0 0 0 0 0 0 0 0 0 0 0 0 0 0 0 0 0 0 0 0 0 0 0 0 0 0 0 0 0 0 0 0
0 0 0 0 0 0 0 0 0 0 0 0 0 0 0 0 0 0 0 0 0 0 0 0 0 0 0 0 0 0 0 0 0 0 0 0 0 0 0 0 0 0 0 0 0 0 0 0 0
0 0 0 0 0 0 -0 0 0 0 0 0 0 0 0 0 0 0 0 0 0 0 0 0 0 0 0 0 0 0 0 0 0 0 0 0 0 0 0 0 0 0 0 0 0 0 0 0 0
0 0 0 0 0 0 0 0 0 0 0 0 0 0 0 0 0 0 0 0 0 0 0 0 0 0 0 0 0 0 0 0 0 0 0 0 0 0 0 0 0 0 0 0 0 0 0 0 0
0 0 0 0 0 0 0 0 0 0 0 0 0 0 0 0 0 0 0 0 0 0 0 0 0 0 0 0 0 0 0 0 0 0 0 0 0 0 0 0 0 0 0 0 0 0 0 0 0
0 0 0 0 0 0 0 0 0 0 0 0 0 0 0 0 0 0 0 0 0 0 0 0 0 0 0 0 0 0 0 0 0 0 0 0 0 0 0 0 0 0 0 0 0 0 0 0 0
0 0 0 0 0 0 0 0 0 0 0 0 0 0 0 0 0 0 0 0 0 0 0 0 0 0 0 0 0 0 0 0 0 0 0 0 0 0 0 0 0 0 0 0 0 0 0 0 0
Wind_Speed_500mb
28 23 14 12 5 4 12 7 15 13 17 25 16 16 28 38 13 7 17 15 18 13 20 19 15 11 1 6 6 6 13 17 14 14 9 9 6 4 1 5 9 8 8 14 13 13 9 3 2
28 18 12 13 4 10 8 15 20 18 20 8 15 4 25 20 23 21 11 26 20 9 17 17 15 8 3 7 5 4 7 14 13 6 4 3 5 3 11 8 14 13 15 11 10 11 12 5 2
25 15 9 5 7 11 12 22 16 21 12 7 11 23 16 13 17 10 9 28 24 15 21 14 10 2 5 6 4 4 7 8 10 9 6 3 6 1 4 7 8 12 10 8 5 10 12 10 4
23 6 12 2 20 15 19 18 27 17 14 8 5 20 18 11 6 8 14 26 22 16 19 15 10 2 3 4 6 3 7 11 11 9 6 5 4 5 2 3 3 7 6 4 2 13 13 10 5
13 14 6 9 17 11 16 18 14 15 14 14 17 17 18 11 14 14 19 26 22 15 17 13 10 5 2 3 5 4 3 10 13 13 8 9 5 9 9 7 6 4 5 4 1 10 14 14 10
14 5 6 9 17 10 16 12 4 24 27 5 19 27 11 16 9 15 18 24 19 8 12 10 10 7 5 2 2 3 2 10 12 16 10 12 11 9 12 16 14 7 6 6 5 7 10 11 18
12 8 11 11 19 11 13 5 10 16 19 14 6 12 20 15 9 18 21 17 19 14 10 9 10 10 10 7 5 3 2 6 12 18 17 15 16 20 15 18 20 13 11 10 10 10 12 15 17
12 6 4 7 14 12 10 7 6 18 13 9 11 10 13 11 12 20 24 17 12 18 14 13 9 12 12 13 11 9 7 7 11 19 24 21 20 22 22 22 20 22 18 15 15 15 16 17 18
11 5 7 5 5 16 15 10 2 2 13 15 12 18 19 13 16 17 20 19 11 6 11 12 13 12 13 17 17 14 16 15 15 14 17 22 22 23 25 24 25 21 19 20 20 20 20 22 22
8 5 10 18 22 10 13 7 15 9 16 21 23 14 13 15 15 12 15 12 8 8 7 11 10 9 16 19 20 26 23 24 22 22 22 21 24 23 22 22 23 23 24 25 25 25 27 27 25
6 6 14 19 21 15 11 2 3 9 5 18 36 23 14 10 8 8 7 12 12 14 11 7 10 12 16 18 20 25 25 25 26 26 24 24 23 23 28 36 38 32 30 32 30 31 32 31 27
5 20 4 11 7 4 2 7 5 7 9 12 13 20 13 10 13 11 10 10 13 12 15 17 12 11 19 24 26 26 31 28 29 29 30 31 32 31 34 35 29 30 27 27 26 30 28 28 28
11 26 9 6 2 4 4 9 13 9 11 10 11 13 12 12 14 14 14 15 18 18 16 19 25 26 20 23 29 34 34 35 33 33 34 37 39 39 38 36 35 33 34 32 31 32 32 35 39
13 18 28 14 13 9 6 18 26 13 26 27 22 24 19 22 20 16 19 14 13 13 18 19 25 34 42 44 32 38 42 42 42 38 37 39 40 42 43 41 39 38 37 37 36 36 35 38 42
5 9 13 14 12 14 13 16 19 33 30 21 27 28 29 30 26 27 18 17 19 23 25 27 33 40 43 52 57 46 45 48 48 48 44 42 44 42 43 46 45 42 38 39 40 41 42 43 44
9 13 13 15 28 14 15 16 22 44 57 48 42 35 45 30 28 23 24 26 28 36 41 40 40 39 44 50 56 62 52 44 57 56 54 50 48 48 46 45 48 46 45 44 44 43 43 45 46
14 9 22 17 32 19 17 9 18 39 22 33 31 34 32 30 31 30 36 38 37 36 32 36 44 50 50 49 56 54 62 57 48 54 56 55 50 51 50 50 46 44 44 44 43 46 47 47 49
13 22 23 20 10 7 16 18 18 39 16 20 26 33 34 41 48 39 39 41 47 44 46 52 54 49 49 46 51 56 52 59 59 57 54 51 52 50 53 53 51 47 47 49 49 49 49 49 52
19 17 16 14 17 12 16 18 20 36 40 39 48 45 49 51 49 42 43 40 37 39 48 47 50 50 48 44 48 55 58 53 57 60 54 53 50 45 50 54 52 51 51 55 53 50 52 52 51
23 24 20 13 10 3 10 22 29 37 45 53 50 51 48 50 47 39 30 29 29 43 44 38 41 43 43 42 46 47 49 46 43 54 55 54 52 47 51 54 54 52 52 53 54 53 54 55 54
26 27 16 14 11 9 8 28 39 35 67 57 56 51 49 47 45 38 32 35 40 32 30 29 30 31 30 35 37 39 41 38 32 29 31 31 30 27 31 49 55 52 49 50 51 52 51 53 51
29 19 25 22 12 11 11 12 23 14 5 17 48 57 54 39 37 33 29 32 28 26 25 24 28 29 27 27 30 29 36 36 34 32 31 30 24 18 20 21 30 37 40 45 45 47 46 42 48
11 10 19 16 12 13 24 12 11 23 17 15 23 31 42 35 26 22 23 22 24 22 19 20 24 23 22 21 22 27 27 31 33 32 27 26 24 23 28 26 26 28 32 31 33 36 39 36 37
12 6 6 2 3 16 24 20 14 21 21 17 16 27 30 25 19 18 18 19 21 15 13 13 15 13 11 4 9 19 29 33 35 35 34 32 30 32 34 34 35 36 37 35 30 27 26 28 32
11 17 4 3 5 13 18 23 30 15 9 0 26 32 27 19 16 17 19 21 15 11 10 9 7 4 1 4 10 17 26 32 32 32 29 29 26 24 28 25 26 27 29 30 31 32 31 24 20
27 26 9 14 10 7 26 18 12 13 26 27 20 19 23 21 23 26 25 19 15 14 12 9 6 4 6 10 14 14 17 18 19 20 19 19 18 13 10 10 11 13 13 13 15 16 20 24 27
20 34 27 11 4 4 10 12 17 11 9 17 21 27 26 22 26 24 19 18 19 17 15 14 12 9 10 12 14 15 16 17 16 14 12 11 9 8 7 6 6 6 6 8 10 15 14 17 20
11 12 18 6 8 9 13 15 20 8 13 16 19 33 28 33 29 25 22 23 23 20 19 16 14 11 11 13 14 15 15 15 14 12 10 8 4 1 4 8 10 11 13 15 17 19 20 22 24
20 11 12 10 12 8 8 10 6 11 24 28 26 36 35 38 33 29 26 27 27 25 23 21 18 16 16 15 13 12 12 11 10 8 7 5 5 4 5 7 11 14 16 17 19 22 25 28 29
32 33 29 14 17 9 23 34 11 15 8 17 28 29 33 38 35 33 33 32 29 31 28 26 26 24 20 16 13 11 10 9 8 7 7 6 7 8 6 8 11 14 15 18 20 24 28 30 32
Wind_Direction_500mb
344 342 342 305 276 108 80 71 89 62 84 60 52 38 81 54 22 66 155 155 152 185 157 161 156 161 127 65 45 73 101 129 167 193 194 249 275 323 303 186 151 151 132 104 116 116 106 105 1
344 356 329 272 260 101 81 103 75 74 78 114 69 9 86 74 66 109 145 131 154 187 159 157 157 169 37 47 46 86 133 147 171 191 162 292 226 197 108 93 111 104 99 128 149 128 107 90 337
349 316 276 271 49 36 105 91 97 97 65 39 119 55 34 50 58 116 176 138 150 166 161 164 166 119 4 14 47 140 173 168 176 164 154 325 65 163 97 124 96 142 121 114 208 161 134 109 279
328 279 251 275 84 54 86 92 117 124 105 62 346 96 83 50 116 168 137 138 151 189 171 182 182 224 336 17 30 40 194 184 166 165 183 265 325 348 323 311 142 133 155 156 164 184 172 155 262
318 265 265 85 73 73 76 89 112 90 87 70 92 78 92 61 85 113 127 136 161 218 181 185 195 219 279 2 28 53 185 205 187 205 249 226 235 323 343 292 273 222 169 167 116 189 209 220 213
306 263 280 151 114 88 91 99 89 87 107 119 107 104 83 104 113 133 129 137 164 216 185 205 208 230 244 282 360 20 78 190 201 202 222 208 242 259 308 315 307 257 223 185 184 210 229 237 233
335 336 342 71 118 145 105 96 13 98 112 45 348 92 120 126 133 131 128 149 162 197 212 225 249 243 257 263 271 294 294 212 215 219 223 217 226 249 261 286 303 285 261 226 223 233 245 250 256
342 297 328 355 139 109 112 108 41 6 74 83 11 114 117 153 129 130 138 157 186 209 199 224 249 288 266 261 269 272 272 251 243 235 235 226 231 231 249 269 284 293 275 269 252 251 257 263 269
324 287 242 152 25 106 135 157 79 136 122 83 76 96 131 135 130 132 147 168 212 215 228 216 226 243 275 289 291 270 272 266 258 246 239 231 239 250 253 263 274 281 277 274 270 261 260 259 264
288 294 21 14 50 70 90 339 131 202 147 140 120 109 121 122 130 149 165 189 241 223 223 249 260 249 229 242 258 275 268 264 261 259 252 249 245 250 267 273 270 269 271 271 270 271 272 275 273
250 247 38 80 64 29 61 227 91 279 180 127 154 144 145 151 166 185 195 203 253 303 293 247 249 262 264 275 265 278 280 269 264 261 260 261 253 243 247 258 268 276 277 272 275 277 277 282 282
279 261 352 94 106 131 229 22 281 263 103 113 123 145 167 182 200 208 215 251 281 257 272 300 310 270 257 251 273 280 283 282 267 264 260 257 257 252 251 262 269 274 278 277 275 277 282 284 281
202 279 207 104 108 224 293 257 262 283 248 217 195 230 212 233 225 226 232 233 230 234 244 262 283 298 290 265 264 264 268 274 276 262 258 256 255 257 259 260 264 264 273 277 276 274 274 278 283
232 293 262 211 209 220 241 257 250 234 244 250 222 243 248 236 235 246 258 270 276 295 296 289 270 284 294 294 274 264 254 263 267 268 263 254 257 256 259 262 263 264 265 270 273 273 272 268 270
298 281 282 254 212 255 229 259 251 242 236 224 224 231 247 245 243 252 242 237 251 266 276 279 285 286 278 285 289 275 262 248 252 261 262 262 259 258 255 257 261 265 267 267 265 266 268 270 272
209 237 252 208 213 208 151 250 249 239 233 237 243 248 257 236 245 252 261 264 268 272 274 274 266 270 278 277 279 282 275 260 252 249 251 257 257 254 258 253 257 262 265 265 264 266 268 273 277
207 243 221 244 231 196 178 261 272 260 239 228 232 247 258 250 256 261 268 276 277 259 247 249 260 267 265 268 273 268 273 272 262 258 253 244 245 248 253 258 260 256 253 251 258 266 269 273 277
216 217 243 257 212 197 245 238 236 270 248 249 248 255 264 271 271 273 277 274 260 259 261 268 271 271 268 264 261 268 257 260 269 268 264 259 244 238 248 254 260 250 248 252 255 254 265 272 276
268 277 285 245 245 179 227 261 274 275 274 228 229 242 252 261 271 277 270 251 254 264 276 277 275 273 266 259 259 258 261 253 249 256 260 265 260 247 240 253 254 249 252 255 257 259 262 267 270
242 259 265 290 313 98 294 273 274 267 262 258 257 255 258 262 270 278 244 254 269 278 285 283 283 279 270 255 251 257 263 263 260 253 265 269 264 254 238 241 250 254 255 259 263 265 262 263 266
231 240 248 259 292 209 275 271 252 249 242 246 249 248 251 259 267 263 267 273 280 282 291 293 292 284 271 251 241 243 250 243 241 253 262 266 271 266 255 244 245 253 257 257 262 267 268 270 275
232 213 236 248 242 246 198 283 297 277 247 221 226 241 241 246 242 236 246 265 276 291 294 295 295 295 278 264 235 230 241 246 250 250 244 245 249 263 264 256 251 255 261 262 264 271 275 278 277
237 294 254 225 251 271 258 279 264 231 258 243 209 215 223 217 206 229 252 261 278 283 286 292 299 300 289 256 230 218 221 231 232 231 223 223 232 231 238 241 242 251 253 269 272 275 274 275 282
164 87 46 354 259 246 229 230 228 235 212 218 205 158 162 182 203 231 247 261 269 278 288 296 306 315 314 299 211 210 221 229 231 234 239 243 245 248 254 254 258 255 262 262 264 273 277 297 292
222 162 181 222 216 236 203 208 243 302 328 34 187 155 169 189 213 231 243 259 259 267 273 279 289 312 287 164 174 199 218 231 238 240 243 245 245 251 250 248 252 255 261 267 268 268 275 276 283
203 201 177 199 199 231 206 235 242 208 250 202 174 174 200 201 210 226 238 246 242 237 241 246 245 206 160 167 178 190 202 208 216 223 223 228 230 226 227 234 237 243 250 256 262 264 267 265 268
189 215 214 326 150 128 241 261 304 167 170 139 150 167 188 201 218 226 233 240 236 232 229 227 219 196 177 161 148 153 155 159 164 168 169 169 173 179 182 206 241 263 287 294 297 301 299 301 299
187 154 202 208 241 232 240 246 239 203 186 194 193 195 194 197 213 224 229 231 232 228 225 220 215 205 183 171 162 157 153 151 149 150 158 161 163 238 303 300 302 309 311 320 322 321 327 327 315
200 210 215 185 214 213 248 235 196 238 214 191 204 210 198 208 220 221 221 226 224 222 220 217 212 198 192 183 170 162 161 163 168 181 199 218 227 243 279 301 313 312 319 325 334 333 335 337 346
217 214 205 206 220 247 257 261 43 99 94 168 187 202 203 221 219 213 218 227 220 218 217 214 212 208 205 198 194 194 202 210 218 222 229 238 261 272 283 297 304 307 324 333 341 352 353 352 355
Wind_Speed_850mb
28 23 14 12 5 4 12 7 15 13 17 25 16 16 28 38 13 7 17 15 18 13 20 19 15 11 1 6 6 6 13 17 14 14 9 9 6 4 1 5 9 8 8 14 13 13 9 3 2
28 18 12 13 4 10 8 15 20 18 20 8 15 4 25 20 23 21 11 26 20 9 17 17 15 8 3 7 5 4 7 14 13 6 4 3 5 3 11 8 14 13 15 11 10 11 12 5 2
25 15 9 5 7 11 12 22 16 21 12 7 11 23 16 13 17 10 9 28 24 15 21 14 10 2 5 6 4 4 7 8 10 9 6 3 6 1 4 7 8 12 10 8 5 10 12 10 4
23 6 12 2 20 15 19 18 27 17 14 8 5 20 18 11 6 8 14 26 22 16 19 15 10 2 3 4 6 3 7 11 11 9 6 5 4 5 2 3 3 7 6 4 2 13 13 10 5
13 14 6 9 17 11 16 18 14 15 14 14 17 17 18 11 14 14 19 26 22 15 17 13 10 5 2 3 5 4 3 10 13 13 8 9 5 9 9 7 6 4 5 4 1 10 14 14 10
14 5 6 9 17 10 16 12 4 24 27 5 19 27 11 16 9 15 18 24 19 8 12 10 10 7 5 2 2 3 2 10 12 16 10 12 11 9 12 16 14 7 6 6 5 7 10 11 18
12 8 11 11 19 11 13 5 10 16 19 14 6 12 20 15 9 18 21 17 19 14 10 9 10 10 10 7 5 3 2 6 12 18 17 15 16 20 15 18 20 13 11 10 10 10 12 15 17
12 6 4 7 14 12 10 7 6 18 13 9 11 10 13 11 12 20 24 17 12 18 14 13 9 12 12 13 11 9 7 7 11 19 24 21 20 22 22 22 20 22 18 15 15 15 16 17 18
11 5 7 5 5 16 15 10 2 2 13 15 12 18 19 13 16 17 20 19 11 6 11 12 13 12 13 17 17 14 16 15 15 14 17 22 22 23 25 24 25 21 19 20 20 20 20 22 22
8 5 10 18 22 10 13 7 15 9 16 21 23 14 13 15 15 12 15 12 8 8 7 11 10 9 16 19 20 26 23 24 22 22 22 21 24 23 22 22 23 23 24 25 25 25 27 27 25
6 6 14 19 21 15 11 2 3 9 5 18 36 23 14 10 8 8 7 12 12 14 11 7 10 12 16 18 20 25 25 25 26 26 24 24 23 23 28 36 38 32 30 32 30 31 32 31 27
5 20 4 11 7 4 2 7 5 7 9 12 13 20 13 10 13 11 10 10 13 12 15 17 12 11 19 24 26 26 31 28 29 29 30 31 32 31 34 35 29 30 27 27 26 30 28 28 28
11 26 9 6 2 4 4 9 13 9 11 10 11 13 12 12 14 14 14 15 18 18 16 19 25 26 20 23 29 34 34 35 33 33 34 37 39 39 38 36 35 33 34 32 31 32 32 35 39
13 18 28 14 13 9 6 18 26 13 26 27 22 24 19 22 20 16 19 14 13 13 18 19 25 34 42 44 32 38 42 42 42 38 37 39 40 42 43 41 39 38 37 37 36 36 35 38 42
5 9 13 14 12 14 13 16 19 33 30 21 27 28 29 30 26 27 18 17 19 23 25 27 33 40 43 52 57 46 45 48 48 48 44 42 44 42 43 46 45 42 38 39 40 41 42 43 44
9 13 13 15 28 14 15 16 22 44 57 48 42 35 45 30 28 23 24 26 28 36 41 40 40 39 44 50 56 62 52 44 57 56 54 50 48 48 46 45 48 46 45 44 44 43 43 45 46
14 9 22 17 32 19 17 9 18 39 22 33 31 34 32 30 31 30 36 38 37 36 32 36 44 50 50 49 56 54 62 57 48 54 56 55 50 51 50 50 46 44 44 44 43 46 47 47 49
13 22 23 20 10 7 16 18 18 39 16 20 26 33 34 41 48 39 39 41 47 44 46 52 54 49 49 46 51 56 52 59 59 57 54 51 52 50 53 53 51 47 47 49 49 49 49 49 52
19 17 16 14 17 12 16 18 20 36 40 39 48 45 49 51 49 42 43 40 37 39 48 47 50 50 48 44 48 55 58 53 57 60 54 53 50 45 50 54 52 51 51 55 53 50 52 52 51
23 24 20 13 10 3 10 22 29 37 45 53 50 51 48 50 47 39 30 29 29 43 44 38 41 43 43 42 46 47 49 46 43 54 55 54 52 47 51 54 54 52 52 53 54 53 54 55 54
26 27 16 14 11 9 8 28 39 35 67 57 56 51 49 47 45 38 32 35 40 32 30 29 30 31 30 35 37 39 41 38 32 29 31 31 30 27 31 49 55 52 49 50 51 52 51 53 51
29 19 25 22 12 11 11 12 23 14 5 17 48 57 54 39 37 33 29 32 28 26 25 24 28 29 27 27 30 29 36 36 34 32 31 30 24 18 20 21 30 37 40 45 45 47 46 42 48
11 10 19 16 12 13 24 12 11 23 17 15 23 31 42 35 26 22 23 22 24 22 19 20 24 23 22 21 22 27 27 31 33 32 27 26 24 23 28 26 26 28 32 31 33 36 39 36 37
12 6 6 2 3 16 24 20 14 21 21 17 16 27 30 25 19 18 18 19 21 15 13 13 15 13 11 4 9 19 29 33 35 35 34 32 30 32 34 34 35 36 37 35 30 27 26 28 32
11 17 4 3 5 13 18 23 30 15 9 0 26 32 27 19 16 17 19 21 15 11 10 9 7 4 1 4 10 17 26 32 32 32 29 29 26 24 28 25 26 27 29 30 31 32 31 24 20
27 26 9 14 10 7 26 18 12 13 26 27 20 19 23 21 23 26 25 19 15 14 12 9 6 4 6 10 14 14 17 18 19 20 19 19 18 13 10 10 11 13 13 13 15 16 20 24 27
20 34 27 11 4 4 10 12 17 11 9 17 21 27 26 22 26 24 19 18 19 17 15 14 12 9 10 12 14 15 16 17 16 14 12 11 9 8 7 6 6 6 6 8 10 15 14 17 20
11 12 18 6 8 9 13 15 20 8 13 16 19 33 28 33 29 25 22 23 23 20 19 16 14 11 11 13 14 15 15 15 14 12 10 8 4 1 4 8 10 11 13 15 17 19 20 22 24
20 11 12 10 12 8 8 10 6 11 24 28 26 36 35 38 33 29 26 27 27 25 23 21 18 16 16 15 13 12 12 11 10 8 7 5 5 4 5 7 11 14 16 17 19 22 25 28 29
32 33 29 14 17 9 23 34 11 15 8 17 28 29 33 38 35 33 33 32 29 31 28 26 26 24 20 16 13 11 10 9 8 7 7 6 7 8 6 8 11 14 15 18 20 24 28 30 32
Wind_Direction_850mb
344 342 342 305 276 108 80 71 89 62 84 60 52 38 81 54 22 66 155 155 152 185 157 161 156 161 127 65 45 73 101 129 167 193 194 249 275 323 303 186 151 151 132 104 116 116 106 105 1
344 356 329 272 260 101 81 103 75 74 78 114 69 9 86 74 66 109 145 131 154 187 159 157 157 169 37 47 46 86 133 147 171 191 162 292 226 197 108 93 111 104 99 128 149 128 107 90 337
349 316 276 271 49 36 105 91 97 97 65 39 119 55 34 50 58 116 176 138 150 166 161 164 166 119 4 14 47 140 173 168 176 164 154 325 65 163 97 124 96 142 121 114 208 161 134 109 279
328 279 251 275 84 54 86 92 117 124 105 62 346 96 83 50 116 168 137 138 151 189 171 182 182 224 336 17 30 40 194 184 166 165 183 265 325 348 323 311 142 133 155 156 164 184 172 155 262
318 265 265 85 73 73 76 89 112 90 87 70 92 78 92 61 85 113 127 136 161 218 181 185 195 219 279 2 28 53 185 205 187 205 249 226 235 323 343 292 273 222 169 167 116 189 209 220 213
306 263 280 151 114 88 91 99 89 87 107 119 107 104 83 104 113 133 129 137 164 216 185 205 208 230 244 282 360 20 78 190 201 202 222 208 242 259 308 315 307 257 223 185 184 210 229 237 233
335 336 342 71 118 145 105 96 13 98 112 45 348 92 120 126 133 131 128 149 162 197 212 225 249 243 257 263 271 294 294 212 215 219 223 217 226 249 261 286 303 285 261 226 223 233 245 250 256
342 297 328 355 139 109 112 108 41 6 74 83 11 114 117 153 129 130 138 157 186 209 199 224 249 288 266 261 269 272 272 251 243 235 235 226 231 231 249 269 284 293 275 269 252 251 257 263 269
324 287 242 152 25 106 135 157 79 136 122 83 76 96 131 135 130 132 147 168 212 215 228 216 226 243 275 289 291 270 272 266 258 246 239 231 239 250 253 263 274 281 277 274 270 261 260 259 264
288 294 21 14 50 70 90 339 131 202 147 140 120 109 121 122 130 149 165 189 241 223 223 249 260 249 229 242 258 275 268 264 261 259 252 249 245 250 267 273 270 269 271 271 270 271 272 275 273
250 247 38 80 64 29 61 227 91 279 180 127 154 144 145 151 166 185 195 203 253 303 293 247 249 262 264 275 265 278 280 269 264 261 260 261 253 243 247 258 268 276 277 272 275 277 277 282 282
279 261 352 94 106 131 229 22 281 263 103 113 123 145 167 182 200 208 215 251 281 257 272 300 310 270 257 251 273 280 283 282 267 264 260 257 257 252 251 262 269 274 278 277 275 277 282 284 281
202 279 207 104 108 224 293 257 262 283 248 217 195 230 212 233 225 226 232 233 230 234 244 262 283 298 290 265 264 264 268 274 276 262 258 256 255 257 259 260 264 264 273 277 276 274 274 278 283
232 293 262 211 209 220 241 257 250 234 244 250 222 243 248 236 235 246 258 270 276 295 296 289 270 284 294 294 274 264 254 263 267 268 263 254 257 256 259 262 263 264 265 270 273 273 272 268 270
298 281 282 254 212 255 229 259 251 242 236 224 224 231 247 245 243 252 242 237 251 266 276 279 285 286 278 285 289 275 262 248 252 261 262 262 259 258 255 257 261 265 267 267 265 266 268 270 272
209 237 252 208 213 208 151 250 249 239 233 237 243 248 257 236 245 252 261 264 268 272 274 274 266 270 278 277 279 282 275 260 252 249 251 257 257 254 258 253 257 262 265 265 264 266 268 273 277
207 243 221 244 231 196 178 261 272 260 239 228 232 247 258 250 256 261 268 276 277 259 247 249 260 267 265 268 273 268 273 272 262 258 253 244 245 248 253 258 260 256 253 251 258 266 269 273 277
216 217 243 257 212 197 245 238 236 270 248 249 248 255 264 271 271 273 277 274 260 259 261 268 271 271 268 264 261 268 257 260 269 268 264 259 244 238 248 254 260 250 248 252 255 254 265 272 276
268 277 285 245 245 179 227 261 274 275 274 228 229 242 252 261 271 277 270 251 254 264 276 277 275 273 266 259 259 258 261 253 249 256 260 265 260 247 240 253 254 249 252 255 257 259 262 267 270
242 259 265 290 313 98 294 273 274 267 262 258 257 255 258 262 270 278 244 254 269 278 285 283 283 279 270 255 251 257 263 263 260 253 265 269 264 254 238 241 250 254 255 259 263 265 262 263 266
231 240 248 259 292 209 275 271 252 249 242 246 249 248 251 259 267 263 267 273 280 282 291 293 292 284 271 251 241 243 250 243 241 253 262 266 271 266 255 244 245 253 257 257 262 267 268 270 275
232 213 236 248 242 246 198 283 297 277 247 221 226 241 241 246 242 236 246 265 276 291 294 295 295 295 278 264 235 230 241 246 250 250 244 245 249 263 264 256 251 255 261 262 264 271 275 278 277
237 294 254 225 251 271 258 279 264 231 258 243 209 215 223 217 206 229 252 261 278 283 286 292 299 300 289 256 230 218 221 231 232 231 223 223 232 231 238 241 242 251 253 269 272 275 274 275 282
164 87 46 354 259 246 229 230 228 235 212 218 205 158 162 182 203 231 247 261 269 278 288 296 306 315 314 299 211 210 221 229 231 234 239 243 245 248 254 254 258 255 262 262 264 273 277 297 292
222 162 181 222 216 236 203 208 243 302 328 34 187 155 169 189 213 231 243 259 259 267 273 279 289 312 287 164 174 199 218 231 238 240 243 245 245 251 250 248 252 255 261 267 268 268 275 276 283
203 201 177 199 199 231 206 235 242 208 250 202 174 174 200 201 210 226 238 246 242 237 241 246 245 206 160 167 178 190 202 208 216 223 223 228 230 226 227 234 237 243 250 256 262 264 267 265 268
189 215 214 326 150 128 241 261 304 167 170 139 150 167 188 201 218 226 233 240 236 232 229 227 219 196 177 161 148 153 155 159 164 168 169 169 173 179 182 206 241 263 287 294 297 301 299 301 299
187 154 202 208 241 232 240 246 239 203 186 194 193 195 194 197 213 224 229 231 232 228 225 220 215 205 183 171 162 157 153 151 149 150 158 161 163 238 303 300 302 309 311 320 322 321 327 327 315
200 210 215 185 214 213 248 235 196 238 214 191 204 210 198 208 220 221 221 226 224 222 220 217 212 198 192 183 170 162 161 163 168 181 199 218 227 243 279 301 313 312 319 325 334 333 335 337 346
217 214 205 206 220 247 257 261 43 99 94 168 187 202 203 221 219 213 218 227 220 218 217 214 212 208 205 198 194 194 202 210 218 222 229 238 261 272 283 297 304 307 324 333 341 352 353 352 355